Weather History for Flagstaff, AZ

Change the Weather History Date:

Thursday, October 9, 2014

  Actual Average Record
Temperature  
Mean Temperature 54 °F 49 °F  
Max Temperature 63 °F 65 °F 81 °F (1980)
Min Temperature 44 °F 34 °F 20 °F (1970)
Degree Days  
Heating Degree Days 11 16  
Month to date heating degree days 113 131  
Since 1 July heating degree days 365 448  
Cooling Degree Days 0 0  
Month to date cooling degree days 0 0  
Year to date cooling degree days 109 117  
Growing Degree Days 4 (Base 50)    
Moisture  
Dew Point 43 °F    
Average Humidity 68    
Maximum Humidity 93    
Minimum Humidity 42    
Precipitation  
Precipitation 0.65 in 0.05 in 1.13 in (1960)
Month to date precipitation 0.68 0.52  
Year to date precipitation 16.62 17.09  
Snow  
Snow 0.00 in 0.10 in 2.00 in (1961)
Month to date snowfall 0.0 0.2  
Since 1 July snowfall 0.0 0.2  
Snow Depth 0.00 in    
Sea Level Pressure  
Sea Level Pressure 29.93 in    
Wind  
Wind Speed 5 mph (NW)    
Max Wind Speed 18 mph    
Max Gust Speed 25 mph    
Visibility 9 miles    
Events Rain    
T = Trace of Precipitation, MM = Missing Value Source: NWS Daily Summary

Daily Weather History Graph

Daily Weather History Graph

Search for Another Location

Airport:

Trip Planner

Search our weather history database for the weather conditions in past years. The results will help you decide how hot, cold, wet, or windy it might be!

Date:

Astronomy

Oct. 09, 2014 Rise Set
Actual Time 6:27 AM MST 5:59 PM MST
Civil Twilight 6:02 AM MST 6:24 PM MST
Nautical Twilight 5:33 AM MST 6:54 PM MST
Astronomical Twilight 5:03 AM MST 7:23 PM MST
Moon 7:02 PM MST (10/9) 7:43 AM MST (10/9)
Length of Visible Light 12h 22m
Length of Day
11h 31m
Full, 98% of the Moon is Illuminated
Oct 9
Full
Oct 15
Last Quarter
Oct 23
New
Oct 30
First Quarter
Nov 6
Full

Hourly Weather History & Observations

Time (MST) Temp. Windchill Dew Point Humidity Pressure Visibility Wind Dir Wind Speed Gust Speed Precip Events Conditions
12:57 AM 50.0 °F - 41.0 °F 71% 29.84 in 10.0 mi ENE 13.8 mph 21.9 mph 0.00 in Rain Light Rain
1:57 AM 48.0 °F - 43.0 °F 83% 29.86 in 10.0 mi ENE 8.1 mph - 0.03 in Rain Light Rain
2:57 AM 46.9 °F - 44.1 °F 90% 29.88 in 5.0 mi SE 8.1 mph - 0.09 in Rain Rain
3:57 AM 46.0 °F 41.0 °F 44.1 °F 93% 29.87 in 5.0 mi NNE 10.4 mph 21.9 mph 0.25 in Rain Rain
4:57 AM 46.0 °F 44.8 °F 44.1 °F 93% 29.88 in 8.0 mi SSE 3.5 mph - 0.10 in Rain Light Rain
5:57 AM 46.0 °F 44.8 °F 43.0 °F 89% 29.90 in 8.0 mi NE 3.5 mph - 0.09 in Rain Light Rain
6:57 AM 46.0 °F 41.4 °F 43.0 °F 89% 29.91 in 10.0 mi East 9.2 mph - 0.07 in Rain Light Rain
7:57 AM 46.9 °F - 43.0 °F 86% 29.92 in 10.0 mi SSW 4.6 mph - 0.01 in   Mostly Cloudy
8:57 AM 48.9 °F - 44.1 °F 83% 29.92 in 10.0 mi East 5.8 mph - N/A   Overcast
9:57 AM 51.1 °F - 44.1 °F 77% 29.94 in 10.0 mi Calm Calm - N/A   Overcast
11:57 AM 57.9 °F - 44.1 °F 60% 29.92 in 10.0 mi WNW 4.6 mph - N/A   Mostly Cloudy
12:57 PM 60.1 °F - 41.0 °F 49% 29.89 in 10.0 mi NW 6.9 mph - N/A   Overcast
1:57 PM 63.0 °F - 41.0 °F 45% 29.87 in 10.0 mi Calm Calm - N/A   Mostly Cloudy
2:57 PM 61.0 °F - 41.0 °F 48% 29.88 in 10.0 mi West 6.9 mph - N/A   Mostly Cloudy
3:57 PM 53.1 °F - 44.1 °F 71% 29.92 in 10.0 mi WNW 3.5 mph - 0.01 in   Overcast
4:57 PM 61.0 °F - 37.9 °F 42% 29.89 in 10.0 mi NW 3.5 mph - N/A   Scattered Clouds
5:57 PM 53.1 °F - 42.1 °F 66% 29.94 in 10.0 mi Calm Calm - N/A   Partly Cloudy
6:57 PM 51.1 °F - 46.9 °F 86% 29.97 in 10.0 mi SW 4.6 mph - N/A   Mostly Cloudy
7:57 PM 51.1 °F - 44.1 °F 77% 29.98 in 10.0 mi SW 9.2 mph - N/A   Clear
8:57 PM 51.1 °F - 46.0 °F 83% 30.00 in 10.0 mi Calm Calm - N/A   Mostly Cloudy
9:41 PM 48.0 °F - 44.1 °F 86% 30.19 in 10.0 mi WNW 3.5 mph - N/A   Scattered Clouds
9:57 PM 48.0 °F - 44.1 °F 86% 30.00 in 10.0 mi West 5.8 mph - N/A   Clear
10:57 PM 46.0 °F 44.8 °F 43.0 °F 89% 30.01 in 10.0 mi North 3.5 mph - N/A   Clear
11:57 PM 46.0 °F 43.1 °F 44.1 °F 93% 29.99 in 10.0 mi West 5.8 mph - N/A   Clear